Theta_e
286 285 285 283 283 283 283 283 284 284 285 286 286 287 287 288 287 287 287 287 287 290
286 286 285 285 283 283 283 284 284 284 284 284 284 285 285 284 284 285 285 287 287 288
284 285 285 285 284 284 284 283 282 283 283 283 284 283 283 282 283 283 284 286 285 287
282 282 283 282 282 282 282 282 282 282 281 281 282 282 281 281 281 281 282 283 283 284
281 281 280 280 281 281 281 282 281 281 281 281 281 280 279 279 280 280 280 281 282 282
280 279 279 280 280 281 280 280 280 280 280 280 280 280 279 279 279 279 279 280 281 282
278 279 279 279 279 279 279 279 279 279 279 279 279 279 279 279 279 279 279 280 281 281
279 279 279 278 279 279 279 279 279 279 279 278 278 278 278 278 278 278 278 280 280 281
279 279 278 278 278 278 278 278 278 278 277 277 278 281 282 281 278 278 278 277 278 279
276 276 276 276 275 274 273 274 273 274 274 274 275 279 280 280 278 278 277 277 277 278
273 271 272 271 270 270 270 270 269 269 270 270 271 275 276 276 275 275 276 276 276 276
270 268 268 266 267 267 266 266 265 266 266 266 266 270 272 272 270 271 271 273 274 274
267 265 264 264 263 264 263 264 264 264 264 264 263 268 270 271 269 267 269 270 271 274
265 263 262 262 262 261 261 262 261 261 262 262 263 264 268 270 269 268 268 268 269 271
Wind_Speed
8 6 5 5 6 5 6 6 8 9 9 10 10 8 7 6 4 4 5 7 6 8
6 6 6 7 5 4 5 7 8 9 10 9 9 10 10 6 7 7 5 6 6 7
6 6 5 5 6 6 6 5 6 7 7 9 9 8 7 8 10 8 6 6 6 7
5 7 7 6 6 6 7 8 9 9 9 9 9 8 6 7 8 7 10 10 7 8
4 4 5 6 7 7 8 10 10 11 12 13 12 9 7 9 9 10 10 11 10 10
6 6 7 7 7 7 7 8 10 11 12 13 13 14 14 12 11 10 11 12 11 11
6 6 6 7 8 8 9 10 10 11 12 13 13 13 14 14 15 15 13 12 12 12
6 6 6 7 7 7 7 9 11 12 12 12 11 10 11 12 14 14 15 16 16 14
7 9 10 11 12 13 14 14 14 15 16 17 12 24 27 24 15 16 17 17 17 17
9 10 10 11 12 14 15 17 18 18 17 19 19 29 32 33 19 19 18 18 17 16
6 8 12 15 15 16 15 16 16 17 18 19 18 31 33 34 22 19 20 18 19 20
8 11 12 13 15 15 16 17 16 16 18 18 17 27 30 27 18 19 22 20 21 20
10 10 13 14 15 14 13 16 14 17 16 19 18 24 29 25 13 17 15 18 20 28
10 12 13 14 12 14 14 16 16 17 15 17 17 17 27 28 16 13 14 14 14 14
Wind_Direction
40 41 35 20 16 20 9 349 348 350 350 348 348 349 346 338 319 288 262 261 247 257
30 33 22 7 358 352 346 346 344 339 339 336 336 343 343 340 325 322 293 259 260 257
3 7 4 354 343 332 324 319 321 324 321 318 320 323 331 327 322 320 304 294 265 260
326 340 337 335 328 315 310 313 319 321 316 307 301 299 289 290 292 298 307 302 273 265
256 273 284 279 276 292 305 311 310 305 304 305 305 300 273 280 278 275 281 279 289 286
266 268 266 273 277 275 269 271 280 284 285 290 296 298 298 290 288 280 270 267 263 267
273 267 261 259 257 259 259 263 263 260 262 264 266 270 277 283 287 285 279 274 264 263
298 289 288 288 291 287 280 282 284 283 278 271 264 267 273 272 275 274 282 282 277 273
319 322 320 315 312 311 309 306 302 298 295 292 284 284 287 289 284 282 279 279 279 279
326 320 324 325 318 311 307 304 300 299 298 294 292 295 296 295 291 285 275 272 272 272
339 326 318 313 309 307 305 303 302 300 300 296 296 300 301 301 296 289 284 277 273 271
321 309 307 303 301 303 302 299 298 294 297 296 297 301 300 299 292 285 284 283 280 277
309 303 301 299 299 296 291 291 294 293 293 292 292 296 297 295 284 282 282 279 278 276
302 299 295 292 294 294 292 291 291 289 290 288 286 288 292 292 286 283 284 282 282 281